[[{"header":{"parameterUnit":"m.s-1","parameterCategory":1,"la1":30.2991,"la2":30.254,"lo1":-89.0895,"lo2":-89.0444,"dy":0.0017,"dx":0.0017,"nx":28,"ny":28,"refTime":"2024-05-13T09:00:00:Z","depth":0,"parameterNumber":2,"parameterNumberName":"U-component_of_WINDS"},"data":[0,0,0,0,0,0,0,0,0,0,0,0,0,0,0,0,0,0,0,0,0,0,0,0,0,0,0,0,0,0,0,0,0,0,0,0,0,0,0,0,0,0,0,0,0,0,0,0,0,0,0,0,0,0,0,0,0,0,-4.9616,-4.9618,0,-4.9793,-4.9795,-4.9797,-4.9841,-4.984,-4.9839,-4.9838,-5.0017,-5.0023,-5.0029,0,0,0,0,0,0,0,0,0,0,0,0,0,-4.9313,-4.9318,-4.9615,-4.9618,-4.962,-4.9793,-4.9795,-4.9798,-4.9841,-4.984,-4.9839,-4.9837,-5.0015,-5.0022,-5.0029,0,0,0,0,0,0,0,0,0,0,0,0,0,-4.9463,-4.932,-4.9615,-4.9663,-4.9669,-4.9792,-4.9795,-4.9798,-4.9842,-4.984,-4.9838,-4.9837,-5.0013,-5.0022,-5.003,-5.0118,0,0,-5.0057,-5.0061,0,0,0,0,0,0,0,0,-4.9454,-4.9474,-4.9654,-4.966,-4.9667,-4.9793,-4.9754,-4.9905,-4.9842,-4.9776,-4.9838,-4.9836,-4.9944,-4.9958,-4.9995,-5.0127,-5.0134,-5.0058,-5.0063,-5.0067,-5.0069,0,0,0,0,0,0,0,-4.9444,-4.9466,-4.9686,-4.9656,-4.9664,-4.9675,-4.9694,-4.9783,-4.9867,-4.9782,-4.9785,-4.9806,-4.9947,-4.9987,-5.0,-5.0137,-5.0058,-5.0065,-5.0071,-5.0074,-5.0349,-5.0351,0,0,0,0,0,0,-4.9425,-4.9457,-4.968,-4.9691,-4.9554,-4.9681,-4.9703,-4.9754,-4.9866,-4.9882,-4.9807,-4.9807,-4.9973,-4.999,-5.0006,-5.0116,-5.0067,-5.0075,-5.008,-5.0347,-5.035,-5.0352,0,0,0,0,0,0,-4.9419,-4.9445,-4.9673,-4.9575,-4.9605,-4.9689,-4.9746,-4.9759,-4.9798,-4.9886,-4.9901,-4.9832,-4.9972,-4.9994,-5.009,-5.0123,-5.0079,-5.0087,-5.0345,-5.0348,-5.0351,-5.0336,0,0,0,0,0,0,-4.941,-4.9442,-4.9477,-4.9576,-4.961,-4.9754,-4.9748,-4.9763,-4.9813,-4.9815,-4.9913,-4.9928,-4.9972,-5.0077,-5.0099,-5.0134,-5.0094,-5.0342,-5.0346,-5.035,-5.0334,-5.0338,-5.0342,0,0,0,0,0,-4.9399,-4.9465,-4.9478,-4.9505,-4.9655,-4.9756,-4.9776,-4.9826,-4.9816,-4.9851,-4.9907,-4.9925,-5.0116,-5.0086,-5.0112,-5.015,-5.034,-5.0345,-5.0349,-5.0332,-5.0337,-5.0341,0,0,0,0,0,0,-4.9367,-4.9479,-4.9495,-4.9595,-4.9666,-4.9763,-4.9809,-4.983,-4.9905,-4.9903,-4.9962,-4.9984,-5.0076,-5.0123,-5.0088,-5.0241,-5.0228,-5.0238,-5.0206,-5.0212,-5.0216,-5.0201,-5.0101,0,0,0,0,0,-4.9371,-4.9444,-4.9539,-4.9618,-4.9653,-4.9725,-4.977,-4.9804,-4.9879,-4.9909,-4.9972,-5.0044,-5.012,-5.0169,-5.0244,-5.0342,-5.0363,-5.038,-5.0384,-5.0387,-5.0394,-5.0448,-5.0456,-5.0367,-5.0367,-5.0367,0,0,-4.9382,-4.9452,-4.9494,-4.9613,-4.9672,-4.9745,-4.9749,-4.9827,-4.9882,-4.992,-5.0014,-5.0064,-5.0148,-5.0245,-5.029,-5.0286,-5.0424,-5.0393,-5.0394,-5.04,-5.0454,-5.0462,-5.0469,-5.037,-5.037,-5.0369,0,0,-4.9437,-4.9499,-4.9571,-4.963,-4.9719,-4.9767,-4.9784,-4.9879,-4.9913,-5.0009,-5.0039,-5.0105,-5.0236,-5.0294,-5.0341,-5.042,-5.0438,-5.0443,-5.0462,-5.0514,-5.0521,-5.0528,-5.0554,-5.0563,-5.045,-5.045,-5.045,0,-4.9438,-4.9551,-4.9605,-4.9682,-4.9733,-4.9772,-4.9845,-4.99,-5.0008,-5.0042,-5.0037,-5.0202,-5.0261,-5.0371,-5.0391,-5.0428,-5.0449,-5.0431,-5.0516,-5.0523,-5.053,-5.0556,-5.0566,-5.045,-5.045,-5.045,-5.045,0,-4.9547,-4.9624,-4.9672,-4.9777,-4.9833,-4.9908,-4.9973,-5.0024,-5.0053,-5.01,-5.0197,-5.0271,-5.0361,-5.039,-5.0419,-5.0505,-5.0499,-5.0504,-5.0493,-5.0537,-5.0562,-5.0573,-5.045,-5.045,-5.045,-5.045,0,0,-4.9585,-4.972,-4.9736,-4.9784,-4.9885,-4.9946,-5.0022,-5.0111,-5.0153,-5.0227,-5.0291,-5.0402,-5.0407,-5.046,-5.0496,-5.0542,-5.0597,-5.0541,-5.0544,-5.0547,-5.0695,-5.0689,-5.0699,-5.0611,-5.0613,-5.0615,-5.0687,0,-4.9652,-4.9789,-4.9841,-4.9953,-5.0025,-5.0064,-5.013,-5.0199,-5.0247,-5.0314,-5.0366,-5.0442,-5.0445,-5.0477,-5.0524,-5.058,-5.0627,-5.0576,-5.067,-5.0673,-5.0645,-5.0713,-5.0707,-5.0771,-5.0698,-5.07,-5.0701,0,-4.9748,-4.9823,-4.9942,-5.0035,-5.0067,-5.0125,-5.0211,-5.0275,-5.0354,-5.0385,-5.0445,-5.0478,-5.0558,-5.0544,-5.0655,-5.0619,-5.0661,-5.0694,-5.0698,-5.0707,-5.0687,-5.0721,-5.0793,-5.0802,-5.0717,-5.0716,-5.0715,0,-4.9761,-4.9893,-4.9981,-5.0021,-5.0131,-5.0171,-5.0219,-5.0297,-5.0347,-5.0422,-5.0455,-5.0538,-5.0583,-5.0646,-5.0701,-5.0685,-5.0806,-5.0796,-5.0833,-5.0832,-5.0855,-5.0852,-5.0932,-5.0886,-5.0885,-5.0885,-5.0885,0,-4.9829,-4.99,-4.9988,-5.0042,-5.0123,-5.0182,-5.026,-5.031,-5.0379,-5.0443,-5.0483,-5.0541,-5.0611,-5.0679,-5.0722,-5.0807,-5.0827,-5.0854,-5.0864,-5.0849,-5.0845,-5.0875,-5.0871,-5.0888,-5.0887,-5.0887,-5.0886,0,-4.9857,-4.9919,-5.0018,-5.0114,-5.0141,-5.0195,-5.0278,-5.0331,-5.0381,-5.0461,-5.0484,-5.0561,-5.0643,-5.0705,-5.0811,-5.084,-5.0929,-5.0941,-5.0902,-5.0907,-5.094,-5.0935,-5.104,-5.1056,-5.1,-5.1001,-5.1001,0,-4.9895,-4.995,-5.0053,-5.0099,-5.0147,-5.022,-5.0272,-5.0332,-5.0384,-5.0479,-5.052,-5.0605,-5.0676,-5.0805,-5.0871,-5.0952,-5.0965,-5.0996,-5.0977,-5.096,-5.0963,-5.0958,-5.0963,-5.0998,-5.0998,-5.0998,-5.0998,0,-4.9955,-4.9983,-5.0056,-5.014,-5.02,-5.0269,-5.0338,-5.0374,-5.0447,-5.0503,-5.0587,-5.0642,-5.0751,-5.0834,-5.0922,-5.0971,-5.0997,-5.1004,-5.1017,-5.1001,-5.0975,-5.0988,-5.0907,-5.1001,-5.1001,-5.1001,-5.1,-5.1,-4.9988,-5.0039,-5.0119,-5.0199,-5.0257,-5.0321,-5.0376,-5.0433,-5.0504,-5.0598,-5.0629,-5.0716,-5.0794,-5.0915,-5.0965,-5.1033,-5.1033,-5.1052,-5.1056,-5.1059,-5.1057,-5.0966,-5.105,-5.105,-5.105,-5.105,-5.105,0,-5.0049,-5.0102,-5.0175,-5.0271,-5.0334,-5.0354,-5.0432,-5.0482,-5.0558,-5.0629,-5.0698,-5.0795,-5.0876,-5.0948,-5.1032,-5.1073,-5.1087,-5.1093,-5.109,-5.11,-5.1053,-5.1033,-5.1081,-5.1081,-5.1081,-5.108,-5.108,-5.108,-5.0088,-5.0174,-5.0212,-5.0327,-5.0381,-5.0466,-5.0509,-5.0568,-5.0624,-5.0731,-5.0798,-5.0845,-5.0917,-5.1006,-5.1081,-5.1101,-5.1129,-5.1132,-5.1153,-5.1108,-5.1104,-5.11,-5.1081,-5.1138,-5.1138,-5.1195,-5.1195,-5.1196]},{"header":{"parameterUnit":"m.s-1","parameterCategory":1,"la1":30.2991,"la2":30.254,"lo1":-89.0895,"lo2":-89.0444,"dy":0.0017,"dx":0.0017,"nx":28,"ny":28,"refTime":"2024-05-13T09:00:00:Z","depth":0,"parameterNumber":3,"parameterNumberName":"V-component_of_WINDS"},"data":[0,0,0,0,0,0,0,0,0,0,0,0,0,0,0,0,0,0,0,0,0,0,0,0,0,0,0,0,0,0,0,0,0,0,0,0,0,0,0,0,0,0,0,0,0,0,0,0,0,0,0,0,0,0,0,0,0,0,6.2093,6.2093,0,6.2108,6.2108,6.2108,6.1987,6.1984,6.198,6.1977,6.1989,6.1992,6.1995,0,0,0,0,0,0,0,0,0,0,0,0,0,6.1959,6.1962,6.2093,6.2093,6.2094,6.2108,6.2108,6.2108,6.1988,6.1984,6.198,6.1976,6.1988,6.1992,6.1996,0,0,0,0,0,0,0,0,0,0,0,0,0,6.2,6.1963,6.2093,6.2035,6.203,6.2108,6.2108,6.2108,6.1989,6.1984,6.1978,6.1974,6.1986,6.1991,6.1996,6.2129,0,0,6.2012,6.2014,0,0,0,0,0,0,0,0,6.1998,6.2005,6.2044,6.2039,6.2034,6.2041,6.2065,6.2115,6.199,6.2004,6.1977,6.1971,6.201,6.2013,6.2026,6.2129,6.213,6.2013,6.2016,6.2018,6.2019,0,0,0,0,0,0,0,6.1995,6.2003,6.2099,6.2044,6.2038,6.2008,6.2008,6.2074,6.2035,6.2003,6.1994,6.1998,6.2006,6.2022,6.2026,6.213,6.2012,6.2017,6.202,6.2022,6.2343,6.2349,0,0,0,0,0,0,6.2,6.2002,6.2098,6.2099,6.2003,6.2014,6.2015,6.2043,6.2034,6.2028,6.2002,6.1992,6.2015,6.202,6.2026,6.218,6.2018,6.2023,6.2026,6.2338,6.2345,6.2351,0,0,0,0,0,0,6.1998,6.201,6.2098,6.2048,6.2057,6.2022,6.2055,6.2046,6.2062,6.2033,6.2026,6.2025,6.2012,6.2018,6.2105,6.2179,6.2025,6.203,6.2332,6.234,6.2348,6.249,0,0,0,0,0,0,6.1995,6.201,6.206,6.205,6.206,6.2177,6.206,6.205,6.2071,6.2058,6.2053,6.2047,6.2008,6.2098,6.211,6.2183,6.2034,6.2325,6.2335,6.2345,6.2479,6.2502,6.2522,0,0,0,0,0,6.199,6.2099,6.2063,6.2076,6.2123,6.2182,6.2187,6.2141,6.2078,6.2128,6.211,6.2047,6.217,6.2107,6.212,6.2196,6.232,6.2332,6.2344,6.2469,6.2498,6.2522,0,0,0,0,0,0,6.2116,6.2096,6.2057,6.2165,6.2177,6.2161,6.2222,6.2173,6.2201,6.2187,6.2128,6.2128,6.2224,6.2219,6.215,6.2324,6.2233,6.2249,6.2324,6.2351,6.2372,6.237,6.2038,0,0,0,0,0,6.2157,6.2207,6.2187,6.2285,6.2293,6.2258,6.2281,6.2245,6.2254,6.2257,6.2245,6.2255,6.2296,6.2323,6.2359,6.2478,6.2475,6.2537,6.2559,6.2577,6.259,6.2653,6.268,6.2391,6.2391,6.239,0,0,6.224,6.2236,6.2271,6.231,6.2314,6.2368,6.2262,6.2322,6.236,6.2266,6.2346,6.2339,6.2346,6.245,6.2495,6.2448,6.267,6.2593,6.2607,6.2611,6.2669,6.2696,6.2721,6.2399,6.2398,6.2396,0,0,6.242,6.2422,6.2504,6.2512,6.252,6.2496,6.2517,6.251,6.2502,6.2582,6.2513,6.2558,6.2629,6.2637,6.265,6.2837,6.278,6.285,6.2963,6.3026,6.3049,6.3068,6.3134,6.3159,6.2864,6.2865,6.2865,0,6.2522,6.26,6.2552,6.2618,6.2637,6.2557,6.2639,6.2648,6.2668,6.2683,6.2631,6.272,6.2719,6.2823,6.2869,6.2883,6.2904,6.2849,6.3049,6.3069,6.3087,6.3149,6.3174,6.2873,6.2872,6.2871,6.287,0,6.2725,6.2781,6.2846,6.2869,6.2896,6.297,6.2933,6.2966,6.2929,6.2911,6.2994,6.2991,6.3025,6.3048,6.3011,6.3148,6.3119,6.306,6.2966,6.3124,6.3181,6.3204,6.2885,6.2882,6.2879,6.2877,0,0,6.298,6.2979,6.3003,6.3013,6.3019,6.306,6.3131,6.3166,6.3195,6.3213,6.327,6.3334,6.328,6.3295,6.3259,6.3315,6.3462,6.3248,6.3248,6.3287,6.3612,6.3655,6.3684,6.3426,6.3431,6.3434,6.3611,0,6.3155,6.3276,6.3236,6.3359,6.341,6.3336,6.3398,6.3407,6.3393,6.3434,6.3417,6.3463,6.3389,6.3398,6.345,6.3434,6.3526,6.342,6.3477,6.348,6.3476,6.3714,6.3759,6.3926,6.3633,6.3637,6.364,0,6.3373,6.3401,6.353,6.3528,6.3548,6.3604,6.3634,6.3674,6.3684,6.367,6.369,6.3643,6.3712,6.3622,6.3715,6.3644,6.3666,6.3662,6.3667,6.3669,6.3568,6.372,6.3978,6.4003,6.3675,6.3672,6.3669,0,6.3545,6.3615,6.3701,6.3712,6.3713,6.3754,6.3756,6.3762,6.3786,6.3812,6.3827,6.3861,6.3879,6.3906,6.3869,6.3807,6.3969,6.3875,6.3958,6.3959,6.3993,6.3991,6.4256,6.4011,6.401,6.401,6.4009,0,6.3742,6.3823,6.3779,6.3831,6.3921,6.3875,6.3964,6.3958,6.3964,6.4014,6.3952,6.4,6.395,6.3993,6.3966,6.4047,6.4056,6.4046,6.4037,6.4051,6.4052,6.4062,6.4049,6.4016,6.4015,6.4014,6.4012,0,6.3948,6.3921,6.401,6.4005,6.4006,6.4072,6.4067,6.4115,6.4098,6.4162,6.4174,6.4147,6.4195,6.4163,6.421,6.4192,6.4299,6.4275,6.4296,6.4288,6.4373,6.4365,6.4652,6.4688,6.4421,6.4424,6.4426,0,6.4074,6.4135,6.4138,6.4168,6.4175,6.4223,6.4248,6.4207,6.4235,6.4253,6.43,6.4343,6.4375,6.4455,6.4439,6.4476,6.4451,6.455,6.4456,6.4468,6.4451,6.4447,6.4453,6.4568,6.4571,6.4573,6.4575,0,6.4301,6.4286,6.4325,6.4362,6.4394,6.442,6.4441,6.4469,6.4427,6.4462,6.4512,6.4537,6.4587,6.4631,6.4662,6.4662,6.4612,6.4606,6.4626,6.4639,6.4649,6.4644,6.4345,6.4598,6.4596,6.4594,6.4593,6.4592,6.447,6.4521,6.4532,6.4578,6.4591,6.4612,6.4658,6.4648,6.4689,6.4727,6.47,6.4759,6.4769,6.4806,6.4814,6.4858,6.4818,6.4848,6.4856,6.4863,6.4875,6.4644,6.4864,6.4863,6.4863,6.4862,6.4861,0,6.4693,6.4697,6.4741,6.4773,6.481,6.4763,6.4784,6.4817,6.487,6.4885,6.4919,6.4976,6.5019,6.5008,6.5046,6.5084,6.5062,6.5095,6.5091,6.5092,6.4909,6.4887,6.5113,6.5113,6.5112,6.5112,6.5112,6.5112,6.4813,6.4898,6.4885,6.4975,6.4978,6.5036,6.5052,6.5072,6.5083,6.5151,6.5187,6.518,6.5184,6.5223,6.526,6.5256,6.5272,6.5314,6.5301,6.513,6.5105,6.5081,6.506,6.5318,6.5318,6.548,6.5481,6.5482]}]]